Weather in Levchenko

Russia / Republic of Tatarstan     55°50′28″N   49°01′47″E
temp.,
°C
wind,
m/s
gust,
m/s
humid.,
%
clouds,
%
prec.,
mm/h
press.,
hPa
HPBL,
m
13 june, sun
sun1300:00+14ese229418 0.0 101223
03:00+13se229521 0.0 101224
06:00+17sse358833 0.0 1012237
09:00+21s466971 0.0 1012801
12:00+24s57570 0.4 10121605
15:00+25s69525 0.8 10111922
18:00+23s596712 0.6 1011768
21:00+19s41180100 0.6 1013345
14 june, mon
mon1400:00+17s31187100 0.2 1013261
03:00+15s3590100 0.2 1014115
06:00+18s3584100 0.0 1015215
09:00+22sw4669100 0.0 1016763
12:00+26sw46558 0.0 10161606
15:00+26sw565519 1.1 10151572
18:00+23sw4671100 2.5 1015518
21:00+19sw1182100 2.8 101515
15 june, tue
tue1500:00+18nw118538 0.0 101511
03:00+17ne118729 0.0 101511
06:00+20ne2379100 0.0 1015182
09:00+24ese236597 0.0 1014689
12:00+25sse3261100 1.0 10141108
15:00+27sse225393 1.0 10121299
18:00+23sse467559 1.3 1012275
21:00+19ssw238660 5.4 101258
16 june, wed
wed1600:00+19ese1186100 0.0 101116
03:00+18se2289100 0.0 101124
06:00+20e3686100 0.0 1010185
09:00+24ese5764100 0.0 1009418
12:00+27se6852100 0.0 10071112
15:00+27se5650100 0.0 10061490
18:00+26s24600 0.0 1004551
21:00+21wnw5108357 0.2 1005276
17 june, thu
thu1700:00+16nw5129413 1.9 1007468
03:00+15nnw7149025 1.9 1010640
06:00+14nw713820 0.0 1012684
09:00+18nnw811601 0.0 10141347
12:00+20nnw81149100 0.0 10162218
15:00+21nnw710445 0.0 10172359
18:00+19nnw6105138 0.0 10191239
21:00+15nnw410594 0.0 1021414